Date String (YYYY-MM-DD hh:mm:ss) UTC,Instrument flags,Ambient pressure (hPa),Sample flow (lpm),Bypass flow (lpm),Sample temperature (°C),Ambient temperature (°C),ASC tube jacket temperature (°C),LED temperature (°C),Box temperature (°C),Sample RH (%),Span deviation,Mass concentration (μg/m³),Mass concentration (μg/m³),Mass concentration (μg/m³)
DateTimeUTC,F1_M11,P_M11,Q1_M11,Q2_M11,T1_M11,T2_M11,T3_M11,T4_M11,T5_M11,U1_M11,ZSPAN_M11,X0_M11,X2_M11,X1_M11
2023-05-30 15:00:00,,0829.8,5.00,0.00,29.7,28.2,00.0,37.9,31.3,23.7,0000.0,0010.25,0004.50,0003.71
2023-05-30 15:01:00,,0829.8,5.00,0.00,29.7,28.2,00.0,37.9,31.3,23.8,0000.0,0009.82,0004.54,0003.72
2023-05-30 15:02:00,,0829.8,5.00,0.00,29.7,28.2,00.0,38.0,31.3,24.4,0000.0,0009.63,0004.56,0003.73
2023-05-30 15:03:00,,0829.7,5.00,0.00,29.7,28.2,00.0,38.0,31.3,24.9,0000.0,0009.80,0004.59,0003.75
2023-05-30 15:04:00,,0829.7,5.00,0.00,29.7,28.3,00.0,38.0,31.3,25.8,0000.0,0009.75,0004.64,0003.78
2023-05-30 15:05:00,,0829.7,5.00,0.00,29.7,28.3,00.0,38.0,31.4,25.9,0000.0,0009.64,0004.61,0003.80
2023-05-30 15:06:00,,0829.7,5.01,0.00,29.7,28.3,00.0,38.0,31.4,26.1,0000.0,0009.55,0004.64,0003.80
2023-05-30 15:07:00,,0829.7,5.00,0.00,29.7,28.3,00.0,38.0,31.4,25.8,0000.0,0009.41,0004.67,0003.81
2023-05-30 15:08:00,,0829.7,5.00,0.00,29.8,28.3,00.0,38.0,31.4,25.8,0000.0,0009.25,0004.70,0003.82
2023-05-30 15:09:00,,0829.7,4.99,0.00,29.8,28.3,00.0,38.0,31.4,25.7,0000.0,0009.63,0004.71,0003.84
2023-05-30 15:10:00,,0829.7,5.00,0.00,29.8,28.3,00.0,38.1,31.4,25.8,0000.0,0009.46,0004.78,0003.86
2023-05-30 15:11:00,,0829.7,5.00,0.00,29.8,28.3,00.0,38.1,31.4,26.4,0000.0,0009.59,0004.82,0003.88
2023-05-30 15:12:00,,0829.7,4.99,0.00,29.8,28.4,00.0,38.1,31.4,26.2,0000.0,0009.90,0004.81,0003.88
2023-05-30 15:13:00,,0829.8,5.00,0.00,29.8,28.4,00.0,38.1,31.4,25.6,0000.0,0010.60,0004.83,0003.90
2023-05-30 15:14:00,,0829.7,5.00,0.00,29.8,28.4,00.0,38.1,31.4,25.8,0000.0,0010.58,0004.87,0003.92
2023-05-30 15:15:00,,0829.7,5.00,0.00,29.8,28.4,00.0,38.1,31.4,25.1,0000.0,0010.68,0004.90,0003.94
2023-05-30 15:16:00,,0829.7,5.01,0.00,29.8,28.4,00.0,38.1,31.4,25.1,0000.0,0011.08,0004.92,0003.94
2023-05-30 15:17:00,,0829.7,5.00,0.00,29.8,28.4,00.0,38.1,31.5,25.4,0000.0,0011.30,0004.93,0003.94
2023-05-30 15:18:00,,0829.7,5.00,0.00,29.9,28.4,00.0,38.2,31.5,25.3,0000.0,0011.52,0004.92,0003.95
2023-05-30 15:19:00,,0829.7,5.00,0.00,29.9,28.4,00.0,38.2,31.5,25.3,0000.0,0011.44,0004.93,0003.96
2023-05-30 15:20:00,,0829.7,4.99,0.00,29.9,28.4,00.0,38.2,31.5,25.2,0000.0,0010.79,0004.91,0003.95
2023-05-30 15:21:00,,0829.8,5.00,0.00,29.9,28.4,00.0,38.2,31.5,24.9,0000.0,0010.74,0004.91,0003.96
2023-05-30 15:22:00,,0829.8,5.01,0.00,29.9,28.4,00.0,38.2,31.5,25.1,0000.0,0010.69,0004.92,0003.97
2023-05-30 15:23:00,,0829.8,5.01,0.00,29.9,28.4,00.0,38.2,31.5,25.5,0000.0,0010.72,0004.94,0003.98
2023-05-30 15:24:00,,0829.8,5.00,0.00,29.9,28.5,00.0,38.2,31.5,25.1,0000.0,0010.00,0004.91,0004.00
2023-05-30 15:25:00,,0829.8,5.00,0.00,29.9,28.5,00.0,38.2,31.5,25.6,0000.0,0009.79,0004.90,0003.99
2023-05-30 15:26:00,,0829.8,4.99,0.00,29.9,28.5,00.0,38.2,31.6,24.9,0000.0,0009.75,0004.90,0003.99
2023-05-30 15:27:00,,0829.8,5.00,0.00,30.0,28.5,00.0,38.2,31.6,24.9,0000.0,0009.83,0004.89,0003.99
2023-05-30 15:28:00,,0829.8,5.00,0.00,30.0,28.3,00.0,38.2,31.6,24.9,0000.0,0009.86,0004.90,0004.00
2023-05-30 15:29:00,,0829.7,4.99,0.00,30.0,26.9,00.0,38.2,31.4,25.0,0000.0,0009.59,0004.94,0004.01
2023-05-30 15:30:00,,0829.7,5.00,0.00,29.9,26.1,00.0,38.1,31.3,25.3,0000.0,0009.60,0004.95,0004.03
2023-05-30 15:31:00,,0829.7,5.01,0.00,29.8,26.3,00.0,38.0,31.1,24.7,0000.0,0009.64,0005.00,0004.04
2023-05-30 15:32:00,,0829.7,5.01,0.00,29.7,26.5,00.0,38.1,31.1,25.1,0000.0,0009.89,0004.99,0004.05
2023-05-30 15:33:00,,0829.7,4.99,0.00,29.7,26.8,00.0,38.1,31.1,25.3,0000.0,0010.70,0004.97,0004.06
2023-05-30 15:34:00,,0829.7,5.00,0.00,29.7,27.0,00.0,38.1,31.1,25.2,0000.0,0010.82,0004.95,0004.06
2023-05-30 15:35:00,,0829.7,5.00,0.00,29.7,27.2,00.0,38.1,31.2,24.8,0000.0,0010.85,0004.96,0004.05
2023-05-30 15:36:00,,0829.7,5.00,0.00,29.7,27.4,00.0,38.1,31.2,25.5,0000.0,0011.25,0004.97,0004.04
2023-05-30 15:37:00,,0829.7,5.00,0.00,29.7,27.6,00.0,38.1,31.2,24.9,0000.0,0011.29,0004.97,0004.04
2023-05-30 15:38:00,,0829.7,5.00,0.00,29.7,27.7,00.0,38.0,31.2,24.7,0000.0,0011.01,0004.95,0004.03
2023-05-30 15:39:00,,0829.7,5.00,0.00,29.7,27.8,00.0,38.0,31.2,24.9,0000.0,0010.77,0004.95,0004.03
2023-05-30 15:40:00,,0829.7,4.99,0.00,29.7,27.9,00.0,38.0,31.3,25.1,0000.0,0010.90,0004.95,0004.04
2023-05-30 15:41:00,,0829.7,4.99,0.00,29.7,27.9,00.0,38.0,31.3,24.7,0000.0,0011.55,0004.94,0004.04
2023-05-30 15:42:00,,0829.7,4.99,0.00,29.7,28.0,00.0,38.0,31.3,24.8,0000.0,0011.60,0004.94,0004.04
2023-05-30 15:43:00,,0829.7,5.00,0.00,29.7,28.0,00.0,38.0,31.3,24.6,0000.0,0011.96,0004.97,0004.04
2023-05-30 15:44:00,,0829.7,5.00,0.00,29.7,28.1,00.0,38.0,31.3,25.0,0000.0,0011.34,0004.96,0004.03
2023-05-30 15:45:00,,0829.7,5.00,0.00,29.7,28.1,00.0,38.0,31.3,24.4,0000.0,0011.29,0004.98,0004.04
2023-05-30 15:46:00,,0829.7,4.99,0.00,29.7,28.1,00.0,38.0,31.3,23.5,0000.0,0011.57,0004.99,0004.05
2023-05-30 15:47:00,,0829.7,5.00,0.00,29.7,28.1,00.0,38.1,31.3,23.2,0000.0,0011.21,0005.00,0004.07
2023-05-30 15:48:00,,0829.7,5.00,0.00,29.7,28.2,00.0,38.1,31.3,23.2,0000.0,0011.32,0004.96,0004.05
2023-05-30 15:49:00,,0829.7,5.00,0.00,29.7,28.2,00.0,38.1,31.4,23.7,0000.0,0011.86,0005.02,0004.05
2023-05-30 15:50:00,,0829.7,5.00,0.00,29.8,28.3,00.0,38.1,31.4,24.2,0000.0,0012.06,0004.98,0004.05
2023-05-30 15:51:00,,0829.7,5.00,0.00,29.8,28.3,00.0,38.1,31.4,24.9,0000.0,0012.37,0004.96,0004.04
2023-05-30 15:52:00,,0829.7,4.99,0.00,29.8,27.9,00.0,38.1,31.4,24.7,0000.0,0012.84,0005.02,0004.03
2023-05-30 15:53:00,,0829.7,5.00,0.00,29.8,26.3,00.0,38.0,31.2,24.7,0000.0,0013.52,0005.01,0004.02
2023-05-30 15:54:00,,0829.6,5.00,0.00,29.7,25.5,00.0,37.9,31.0,24.7,0000.0,0013.29,0004.99,0004.01
2023-05-30 15:55:00,,0829.6,5.01,0.00,29.6,25.7,00.0,37.9,30.9,24.7,0000.0,0013.15,0004.98,0004.00
2023-05-30 15:56:00,,0829.7,5.00,0.00,29.5,26.0,00.0,37.9,30.9,24.3,0000.0,0012.92,0004.95,0004.00
2023-05-30 15:57:00,,0829.7,5.00,0.00,29.5,26.3,00.0,37.9,30.9,24.1,0000.0,0012.74,0004.92,0003.98
2023-05-30 15:58:00,,0829.7,5.00,0.00,29.4,26.6,00.0,37.8,30.9,24.1,0000.0,0012.85,0004.93,0003.97
2023-05-30 15:59:00,,0829.6,4.99,0.00,29.4,26.8,00.0,37.8,30.9,24.7,0000.0,0013.24,0004.95,0003.97
